Time,TemperatureF,DewpointF,PressureIn,WindDirection,WindDirectionDegrees,WindSpeedMPH,WindSpeedGustMPH,Humidity,HourlyPrecipIn,Conditions,Clouds,dailyrainin,SoftwareType,DateUTC
2013-03-06 00:00:00,23.0,-19.0,-100.00,West,274,9.0,18.0,14,-99.99,,,-99.99,,2013-03-06 07:00:00,
2013-03-06 00:42:00,23.0,-19.0,-100.00,West,274,9.0,18.0,14,-99.99,,,-99.99,,2013-03-06 07:42:00,
2013-03-06 00:52:00,23.0,-19.0,-100.00,West,274,9.0,18.0,14,-99.99,,,-99.99,,2013-03-06 07:52:00,
2013-03-06 01:00:00,23.0,-19.0,-100.00,West,263,13.0,27.0,14,-99.99,,,-99.99,,2013-03-06 08:00:00,
2013-03-06 01:42:00,23.0,-19.0,-100.00,West,263,13.0,27.0,14,-99.99,,,-99.99,,2013-03-06 08:42:00,
2013-03-06 01:52:00,23.0,-19.0,-100.00,West,263,13.0,27.0,14,-99.99,,,-99.99,,2013-03-06 08:52:00,
2013-03-06 02:00:00,22.0,-15.0,-100.00,WSW,249,13.0,33.0,18,-99.99,,,-99.99,,2013-03-06 09:00:00,
2013-03-06 02:42:00,22.0,-15.0,-100.00,WSW,249,13.0,33.0,18,-99.99,,,-99.99,,2013-03-06 09:42:00,
2013-03-06 02:52:00,22.0,-15.0,-100.00,WSW,249,13.0,33.0,18,-99.99,,,-99.99,,2013-03-06 09:52:00,
2013-03-06 04:00:00,22.0,-9.0,-100.00,WSW,248,12.0,38.0,24,-99.99,,,-99.99,,2013-03-06 11:00:00,
2013-03-06 04:42:00,22.0,-9.0,-100.00,WSW,248,12.0,38.0,24,-99.99,,,-99.99,,2013-03-06 11:42:00,
2013-03-06 04:52:00,22.0,-9.0,-100.00,WSW,248,12.0,38.0,24,-99.99,,,-99.99,,2013-03-06 11:52:00,
2013-03-06 06:00:00,21.0,-5.0,-100.00,West,281,9.0,28.0,30,-99.99,,,-99.99,,2013-03-06 13:00:00,
2013-03-06 06:42:00,21.0,-5.0,-100.00,West,281,9.0,28.0,30,-99.99,,,-99.99,,2013-03-06 13:42:00,
2013-03-06 06:52:00,21.0,-5.0,-100.00,West,281,9.0,28.0,30,-99.99,,,-99.99,,2013-03-06 13:52:00,
2013-03-06 07:00:00,22.0,-4.0,-100.00,WSW,258,11.0,29.0,31,-99.99,,,-99.99,,2013-03-06 14:00:00,
2013-03-06 07:42:00,22.0,-4.0,-100.00,WSW,258,11.0,29.0,31,-99.99,,,-99.99,,2013-03-06 14:42:00,
2013-03-06 07:52:00,22.0,-4.0,-100.00,WSW,258,11.0,29.0,31,-99.99,,,-99.99,,2013-03-06 14:52:00,
2013-03-06 08:00:00,23.0,-4.0,-100.00,West,274,9.0,19.0,30,-99.99,,,-99.99,,2013-03-06 15:00:00,
2013-03-06 08:42:00,23.0,-4.0,-100.00,West,274,9.0,19.0,30,-99.99,,,-99.99,,2013-03-06 15:42:00,
2013-03-06 08:52:00,23.0,-4.0,-100.00,West,274,9.0,19.0,30,-99.99,,,-99.99,,2013-03-06 15:52:00,
2013-03-06 10:00:00,29.0,-2.0,-100.00,SW,217,11.0,29.0,25,-99.99,,,-99.99,,2013-03-06 17:00:00,
2013-03-06 10:42:00,29.0,-2.0,-100.00,SW,217,11.0,29.0,25,-99.99,,,-99.99,,2013-03-06 17:42:00,
2013-03-06 10:53:00,29.0,-2.0,-100.00,SW,217,11.0,29.0,25,-99.99,,,-99.99,,2013-03-06 17:53:00,
2013-03-06 11:00:00,30.0,1.0,-100.00,WSW,240,10.0,23.0,28,-99.99,,,-99.99,,2013-03-06 18:00:00,
2013-03-06 11:42:00,30.0,1.0,-100.00,WSW,240,10.0,23.0,28,-99.99,,,-99.99,,2013-03-06 18:42:00,
2013-03-06 11:53:00,30.0,1.0,-100.00,WSW,240,10.0,23.0,28,-99.99,,,-99.99,,2013-03-06 18:53:00,
2013-03-06 12:00:00,31.0,1.0,-100.00,WSW,258,11.0,22.0,27,-99.99,,,-99.99,,2013-03-06 19:00:00,
2013-03-06 12:43:00,31.0,1.0,-100.00,WSW,258,11.0,22.0,27,-99.99,,,-99.99,,2013-03-06 19:43:00,
2013-03-06 12:53:00,31.0,1.0,-100.00,WSW,258,11.0,22.0,27,-99.99,,,-99.99,,2013-03-06 19:53:00,
2013-03-06 13:00:00,32.0,1.0,-100.00,West,276,10.0,21.0,27,-99.99,,,-99.99,,2013-03-06 20:00:00,
2013-03-06 13:43:00,32.0,1.0,-100.00,West,276,10.0,21.0,27,-99.99,,,-99.99,,2013-03-06 20:43:00,
2013-03-06 13:53:00,32.0,1.0,-100.00,West,276,10.0,21.0,27,-99.99,,,-99.99,,2013-03-06 20:53:00,
2013-03-06 14:00:00,32.0,1.0,-100.00,West,266,12.0,24.0,26,-99.99,,,-99.99,,2013-03-06 21:00:00,
2013-03-06 14:42:00,32.0,1.0,-100.00,West,266,12.0,24.0,26,-99.99,,,-99.99,,2013-03-06 21:42:00,
2013-03-06 14:52:00,32.0,1.0,-100.00,West,266,12.0,24.0,26,-99.99,,,-99.99,,2013-03-06 21:52:00,
2013-03-06 15:00:00,32.0,1.0,-100.00,WSW,246,14.0,24.0,26,-99.99,,,-99.99,,2013-03-06 22:00:00,
2013-03-06 15:42:00,32.0,1.0,-100.00,WSW,246,14.0,24.0,26,-99.99,,,-99.99,,2013-03-06 22:42:00,
2013-03-06 15:52:00,32.0,1.0,-100.00,WSW,246,14.0,24.0,26,-99.99,,,-99.99,,2013-03-06 22:52:00,
2013-03-06 16:00:00,33.0,-1.0,-100.00,WSW,242,15.0,31.0,23,-99.99,,,-99.99,,2013-03-06 23:00:00,
2013-03-06 16:42:00,33.0,-1.0,-100.00,WSW,242,15.0,31.0,23,-99.99,,,-99.99,,2013-03-06 23:42:00,
2013-03-06 16:52:00,33.0,-1.0,-100.00,WSW,242,15.0,31.0,23,-99.99,,,-99.99,,2013-03-06 23:52:00,
2013-03-06 17:00:00,31.0,0.0,-100.00,WSW,247,15.0,30.0,25,-99.99,,,-99.99,,2013-03-07 00:00:00,
2013-03-06 17:42:00,31.0,0.0,-100.00,WSW,247,15.0,30.0,25,-99.99,,,-99.99,,2013-03-07 00:42:00,
2013-03-06 17:52:00,31.0,0.0,-100.00,WSW,247,15.0,30.0,25,-99.99,,,-99.99,,2013-03-07 00:52:00,
2013-03-06 19:00:00,27.0,0.0,-100.00,WSW,238,27.0,50.0,30,-99.99,,,-99.99,,2013-03-07 02:00:00,
2013-03-06 20:00:00,26.0,-1.0,-100.00,SW,236,32.0,50.0,29,-99.99,,,-99.99,,2013-03-07 03:00:00,
2013-03-06 20:42:00,26.0,-1.0,-100.00,SW,236,32.0,50.0,29,-99.99,,,-99.99,,2013-03-07 03:42:00,
2013-03-06 20:52:00,26.0,-1.0,-100.00,SW,236,32.0,50.0,29,-99.99,,,-99.99,,2013-03-07 03:52:00,